Temperature
5 5 5 5 5 5 5 5 4 5 5 5 5 4 5 5 5 5 4 4 4 4 5 5 5 5 5 5 5 5 5 5 5 5 5 5 5 5 6 6 6 6 6 6
5 5 5 5 5 5 5 5 4 4 5 5 5 5 5 4 4 4 4 5 5 5 4 4 5 5 5 4 4 4 4 5 5 5 5 5 5 5 5 5 5 5 5 5
4 4 5 5 5 5 5 5 4 5 5 4 4 4 5 5 5 5 5 5 4 4 4 4 4 4 4 4 4 4 4 4 4 4 5 5 5 5 4 4 4 4 4 4
3 4 6 6 6 5 5 5 4 5 5 4 5 5 6 6 6 5 5 5 5 4 4 4 4 4 4 4 4 4 4 4 4 4 4 4 4 4 4 4 4 4 4 4
3 3 4 6 5 5 5 5 5 4 4 4 4 4 5 6 6 6 6 5 5 5 4 4 4 4 4 4 4 4 4 4 4 4 4 3 3 3 3 3 3 3 3 3
3 4 6 7 5 5 6 6 5 4 3 3 3 3 4 6 6 6 5 5 5 5 4 4 4 4 4 4 4 4 3 3 3 3 3 3 3 3 3 3 3 3 3 3
3 3 4 4 5 5 6 6 6 5 4 4 3 5 6 6 6 6 5 5 5 4 4 4 4 4 4 4 3 3 3 3 3 3 3 3 3 3 2 2 2 2 3 2
2 3 5 5 4 4 5 6 6 6 6 5 6 6 6 6 5 5 5 5 4 4 4 4 4 3 3 3 3 3 3 3 3 2 2 2 2 2 2 2 2 2 2 2
3 4 5 5 5 6 6 6 6 6 6 6 5 6 6 5 5 5 5 5 4 4 4 3 3 3 3 3 3 2 2 2 2 2 2 2 2 2 2 2 2 1 1 1
1 2 4 5 6 7 7 7 7 7 6 6 6 6 5 5 5 4 4 4 4 4 3 3 3 3 3 3 2 2 2 2 2 2 2 1 1 1 1 1 1 1 1 1
1 2 3 6 8 8 8 7 7 7 6 6 6 5 5 5 5 4 4 4 4 3 3 3 3 2 2 2 2 2 2 2 1 1 1 1 1 1 1 1 0 0 0 0
3 4 4 7 8 8 7 7 7 6 6 6 5 5 5 5 5 4 4 4 3 3 3 3 2 2 2 2 2 1 1 1 1 1 1 1 1 1 0 0 0 -0 -0 -0
6 7 7 7 7 7 7 7 7 6 6 6 5 5 5 5 4 4 4 3 3 3 3 2 2 2 2 2 1 1 1 1 1 0 0 0 -0 -0 -0 0 -0 -0 -0 -0
6 6 5 6 7 7 7 6 6 6 6 5 5 5 4 4 4 4 4 3 3 3 2 2 2 2 2 1 1 1 1 0 0 -0 -0 -0 -1 -1 -1 -1 -1 -1 -1 -1
6 6 6 6 6 6 6 6 5 5 5 5 5 4 4 4 4 4 3 3 3 2 2 2 2 1 1 1 1 0 0 0 -0 -0 -1 -1 -1 -1 -1 -1 -1 -1 -1 -1
5 5 5 5 5 5 5 5 5 5 5 5 4 4 4 4 3 3 3 2 2 2 2 2 1 1 1 0 0 0 -0 -0 -1 -1 -1 -1 -1 -1 -2 -2 -2 -2 -2 -2
4 4 4 4 5 5 5 5 5 5 5 4 4 4 4 3 3 3 3 2 2 2 1 1 1 1 0 0 -0 -0 -0 -1 -1 -1 -1 -1 -2 -2 -2 -2 -2 -2 -2 -3
4 5 5 5 4 4 4 5 5 4 4 4 4 3 3 3 3 3 2 2 1 1 1 1 1 0 0 -0 -1 -1 -1 -1 -1 -2 -2 -2 -2 -2 -2 -3 -3 -3 -3 -3
4 4 4 4 4 4 4 4 4 4 4 4 3 3 3 3 2 2 2 1 1 1 1 1 0 -0 -0 -1 -1 -1 -1 -2 -2 -2 -2 -3 -3 -3 -3 -3 -3 -3 -3 -4
4 4 4 4 4 4 4 4 4 4 3 3 3 3 2 2 2 2 1 1 1 1 0 0 -0 -1 -1 -1 -1 -2 -2 -2 -2 -3 -3 -3 -3 -3 -3 -3 -4 -4 -4 -4
4 4 4 4 4 4 3 3 3 3 3 3 3 2 2 2 1 1 1 1 1 0 -0 -1 -1 -1 -1 -1 -2 -2 -2 -3 -3 -3 -3 -4 -4 -4 -4 -4 -4 -4 -4 -4
4 4 4 3 3 3 3 3 3 3 3 2 2 2 1 1 1 1 0 0 0 -0 -1 -1 -1 -2 -2 -2 -2 -3 -3 -3 -3 -3 -4 -4 -4 -4 -4 -4 -5 -5 -5 -5
3 3 3 3 2 2 2 2 2 2 2 2 2 1 1 1 0 0 -0 -0 -1 -1 -1 -1 -2 -2 -2 -2 -3 -3 -3 -3 -4 -4 -4 -4 -5 -5 -5 -5 -5 -5 -5 -5
3 3 2 2 2 1 2 2 2 2 1 1 1 1 0 0 -0 -0 -1 -1 -1 -1 -2 -2 -2 -2 -3 -3 -3 -3 -4 -4 -4 -4 -5 -5 -5 -5 -5 -5 -6 -6 -6 -6
2 2 2 1 1 1 1 1 1 1 1 1 0 0 -0 -0 -1 -1 -1 -1 -2 -2 -2 -2 -3 -3 -3 -3 -4 -4 -4 -4 -5 -5 -5 -5 -5 -5 -6 -6 -6 -6 -6 -6
1 1 1 1 1 1 1 0 0 0 0 0 -0 -0 -1 -1 -1 -1 -2 -2 -2 -2 -3 -3 -3 -3 -4 -4 -4 -4 -4 -5 -5 -5 -5 -5 -6 -6 -6 -6 -6 -6 -6 -6
1 1 0 0 0 0 0 -0 -0 0 -0 -0 -0 -1 -1 -1 -1 -2 -2 -2 -3 -3 -3 -3 -4 -4 -4 -4 -4 -4 -5 -5 -5 -5 -6 -6 -6 -6 -6 -6 -7 -7 -7 -7
Wind_Speed
5 5 4 5 6 4 5 6 6 6 6 9 7 6 5 4 3 2 1 0 0 1 2 3 3 4 4 4 5 5 4 4 4 4 5 5 5 4 5 4 4 3 3 3
4 3 4 6 7 6 6 5 6 5 8 7 4 3 3 4 4 3 3 2 1 0 1 1 2 2 3 3 4 3 3 3 4 5 5 5 5 5 5 5 4 4 4 3
4 6 6 6 6 7 4 5 6 7 7 3 3 6 7 7 6 5 4 3 3 2 2 1 1 1 1 2 3 3 4 4 4 5 5 5 5 5 5 5 5 5 4 4
2 5 4 6 1 5 5 6 7 6 5 5 5 4 5 5 7 6 5 4 3 3 2 1 1 1 2 2 3 4 4 5 5 5 5 5 5 5 5 5 5 4 5 5
0 3 8 7 2 3 4 6 6 7 5 2 1 2 3 5 6 6 6 4 3 3 2 1 0 1 2 3 3 4 5 5 5 5 5 5 5 5 5 4 5 5 4 5
2 2 5 5 1 1 1 5 4 4 4 3 4 2 5 4 4 4 3 2 2 2 1 1 0 1 2 2 3 4 4 4 4 4 4 5 5 4 4 4 4 5 5 5
4 5 8 6 2 2 2 5 3 4 5 6 7 6 3 3 3 3 3 3 3 3 2 1 1 2 2 2 2 3 4 4 4 4 4 4 4 4 4 4 5 5 5 5
4 4 7 3 5 5 7 3 2 4 5 6 5 2 2 3 3 3 3 3 3 3 2 1 1 2 1 1 2 2 3 3 4 4 4 4 4 5 4 4 5 5 5 6
8 9 5 5 7 6 4 4 4 4 5 5 4 3 3 3 3 3 3 3 3 3 2 1 1 2 1 1 2 2 2 3 3 4 4 4 4 4 4 4 4 4 4 5
6 10 8 9 8 7 6 6 6 5 5 5 5 5 4 3 3 3 3 3 3 3 2 1 1 1 1 1 1 1 1 2 3 3 4 4 3 3 3 4 4 4 4 5
7 9 8 7 7 7 6 6 5 4 5 6 5 5 5 4 4 4 3 3 3 4 3 3 2 1 1 0 0 0 1 2 3 3 3 3 3 3 3 3 4 4 4 4
9 8 6 7 5 4 5 6 6 5 4 4 6 6 5 5 5 5 4 4 4 4 3 3 2 2 1 1 1 0 1 1 2 2 3 3 3 4 5 4 7 7 6 6
9 6 6 7 6 4 6 7 6 7 7 5 5 6 6 5 5 5 5 5 5 5 4 3 3 3 2 2 1 1 1 2 2 2 2 3 3 3 5 6 6 6 7 8
9 5 6 7 7 6 6 6 5 5 5 5 5 4 5 4 4 6 7 6 5 5 4 3 3 4 3 2 2 1 1 2 2 2 2 2 3 3 3 4 5 5 6 8
11 10 10 7 6 5 4 3 3 4 4 4 4 5 6 6 7 7 6 5 4 4 4 4 4 4 3 3 2 2 2 2 2 2 2 2 2 2 3 3 4 4 4 6
8 7 8 7 9 7 5 6 7 7 6 6 6 6 7 7 6 5 5 5 5 6 6 5 6 5 3 3 3 2 2 3 2 2 2 2 2 2 3 3 3 4 4 4
8 9 8 8 9 9 9 9 10 9 8 8 8 6 5 4 4 5 5 6 6 6 6 6 5 4 4 4 3 2 2 2 2 2 2 2 2 2 3 3 3 4 4 5
13 13 11 10 9 9 9 9 9 9 8 8 6 5 6 7 8 7 6 5 4 4 5 5 4 4 4 4 3 3 2 2 2 2 2 2 2 2 2 3 3 4 4 5
11 11 11 10 10 10 9 9 9 8 7 6 7 8 8 8 7 6 5 5 6 6 6 5 6 5 4 5 4 3 3 2 2 2 2 3 3 2 3 3 3 4 4 4
8 8 9 9 8 8 9 8 7 7 7 7 7 7 7 7 6 6 6 7 7 6 5 5 5 5 5 5 4 3 3 3 3 3 3 2 3 3 3 3 3 4 3 3
7 8 8 8 8 8 8 8 8 8 7 8 9 9 8 7 6 6 6 6 6 5 5 6 5 4 4 4 5 3 3 3 3 3 3 3 3 3 3 3 3 4 4 3
6 6 7 7 7 6 6 6 7 8 7 7 7 7 6 6 6 6 6 6 5 6 5 4 4 5 6 5 3 4 4 4 4 3 3 3 3 3 3 4 4 4 4 3
6 6 6 6 6 6 4 5 6 7 8 8 8 8 8 7 6 6 6 4 4 7 5 4 6 8 8 5 3 4 4 4 4 4 4 4 4 4 4 4 4 4 3 3
5 5 5 4 4 4 5 5 5 5 6 6 6 7 6 5 4 4 3 5 7 7 5 6 8 8 7 4 4 4 4 4 4 4 4 4 4 4 4 4 4 4 3 3
5 5 5 5 6 6 5 4 4 4 4 3 4 5 4 4 4 4 3 4 7 6 4 6 8 7 4 3 4 4 4 4 4 4 4 4 4 4 4 4 4 4 4 3
4 5 5 6 5 4 4 4 4 4 4 4 3 3 3 3 3 3 3 4 5 5 4 3 3 4 3 4 4 4 4 4 4 4 4 4 4 4 4 4 5 4 4 4
4 3 3 3 3 4 5 5 5 5 5 5 4 3 4 3 3 3 4 3 3 3 3 3 3 3 3 3 3 4 4 4 4 4 4 4 4 4 5 5 4 4 4 3
Wind_Direction
260 271 264 259 258 227 208 205 210 240 237 251 240 232 222 199 182 174 187 175 109 36 7 4 3 7 11 7 4 9 13 10 1 354 357 358 354 355 352 354 354 353 344 329
301 299 294 274 259 239 231 221 232 255 265 255 241 197 190 196 190 197 210 220 232 277 345 341 342 349 356 356 352 7 14 4 360 4 4 360 360 4 3 360 358 2 357 344
296 315 331 284 244 208 220 215 195 223 242 235 223 207 205 203 201 208 210 213 216 234 244 259 285 303 332 338 352 11 14 8 4 4 5 357 360 7 4 357 358 357 352 348
306 353 275 256 237 198 224 246 224 237 244 219 224 226 215 195 195 207 207 206 210 217 235 264 307 340 355 10 14 15 13 10 6 5 1 356 4 5 356 353 351 345 343 342
92 297 283 293 255 187 204 272 231 228 244 237 98 35 286 218 200 204 204 204 204 206 205 197 331 355 32 28 19 15 8 3 357 355 355 356 358 353 349 351 348 342 336 340
158 259 263 273 277 217 120 290 271 206 217 189 129 196 258 214 190 197 193 182 176 164 134 117 23 67 65 33 20 1 348 345 347 351 353 350 346 345 344 345 340 339 343 340
201 242 268 262 259 110 159 267 282 207 203 182 192 216 231 171 183 186 183 177 158 143 148 177 128 94 77 36 349 329 337 344 350 352 352 349 350 348 346 349 349 348 344 336
182 219 261 218 140 190 229 272 245 221 210 203 215 223 191 181 182 174 175 167 151 145 158 165 117 108 89 330 316 342 351 352 352 350 354 358 358 352 351 355 354 349 343 337
201 223 250 206 213 239 229 240 238 225 229 200 202 213 207 194 190 190 182 169 155 156 156 149 134 138 168 290 335 354 360 349 344 350 356 354 355 354 353 355 353 345 343 336
254 263 255 246 245 251 232 233 242 227 217 194 206 208 204 198 197 194 183 175 162 154 161 194 199 175 196 288 343 355 348 340 341 351 352 349 347 347 350 347 343 339 336 331
253 272 290 273 235 239 239 237 235 224 208 203 198 206 204 204 204 201 195 183 172 175 189 209 204 207 218 225 154 326 327 336 338 339 340 336 330 322 327 317 321 323 317 316
230 231 218 253 254 225 223 230 223 215 221 215 201 206 202 205 204 198 194 185 182 188 197 210 204 214 228 214 184 175 316 326 327 330 330 328 323 325 324 324 328 333 338 335
233 236 224 253 269 235 229 231 219 210 210 214 212 202 196 201 199 193 191 194 198 200 203 206 206 217 227 219 199 198 265 292 306 318 322 321 321 324 327 330 329 333 339 340
237 243 261 252 251 249 235 232 219 218 218 208 201 196 192 194 196 199 205 206 199 194 197 201 210 227 226 209 204 223 255 273 287 289 297 304 308 311 316 323 327 326 328 333
237 225 234 252 260 255 234 209 208 223 220 215 197 194 193 198 209 214 211 195 183 190 202 205 216 230 218 201 207 220 234 258 271 277 282 290 301 308 309 311 311 316 325 332
235 233 232 239 246 244 226 211 216 225 218 213 212 212 210 208 209 208 200 186 189 208 214 214 222 224 205 197 208 223 240 260 272 277 284 294 300 306 306 306 307 311 316 319
224 235 231 234 237 235 226 221 220 221 215 215 218 213 204 199 202 210 210 205 207 215 216 215 221 212 197 196 201 216 229 250 266 279 275 279 288 292 295 297 299 304 304 310
225 232 227 223 227 228 230 226 222 219 217 217 207 194 197 205 215 221 216 205 209 228 230 220 212 200 200 202 202 205 209 227 240 252 265 274 283 285 287 290 295 298 304 311
229 234 235 231 226 221 222 223 222 219 214 200 195 203 210 215 215 210 199 196 209 231 235 216 206 197 205 210 200 199 205 221 240 253 257 273 282 283 283 284 288 292 297 303
234 235 236 235 227 219 221 220 214 212 207 196 196 202 211 216 207 199 199 213 222 222 209 201 201 204 209 210 200 199 205 216 229 243 246 253 267 274 278 284 286 288 290 290
239 237 233 230 229 225 220 211 204 209 205 195 198 207 213 213 203 196 202 232 237 208 200 202 199 204 205 204 198 196 206 218 226 234 241 250 260 267 271 277 281 283 283 284
236 235 235 230 225 229 223 208 203 202 200 201 203 201 199 205 206 210 217 226 220 200 195 199 201 207 208 201 193 198 209 218 227 231 235 241 248 256 261 265 268 272 273 273
237 234 233 229 224 223 218 208 202 198 201 202 200 199 202 205 201 206 231 221 200 198 192 200 207 210 208 195 194 205 214 220 226 229 233 236 240 245 252 259 262 264 264 266
238 233 227 219 203 203 216 220 209 204 202 204 203 198 193 199 214 216 213 197 196 198 201 206 208 210 204 190 198 209 217 224 228 231 233 235 236 240 247 253 258 260 259 262
232 227 217 206 210 218 215 200 187 188 187 198 198 193 191 192 200 202 192 195 196 195 199 206 207 207 199 194 205 213 218 225 228 228 230 234 236 239 244 248 250 254 256 255
225 227 227 223 219 211 197 189 194 195 191 194 199 190 181 176 173 177 180 186 190 191 192 196 197 199 198 205 214 220 224 233 242 238 235 236 238 240 246 250 252 252 252 250
227 226 228 236 226 203 194 193 197 199 196 193 198 192 180 176 172 174 175 179 183 184 185 191 195 199 204 211 218 224 228 230 232 236 238 238 238 238 243 246 250 249 247 246
Height
1480 1477 1476 1474 1472 1472 1473 1473 1475 1469 1468 1461 1459 1459 1459 1460 1461 1461 1461 1462 1461 1461 1460 1459 1459 1458 1457 1456 1455 1453 1452 1451 1449 1448 1447 1445 1444 1443 1442 1441 1439 1438 1438 1438
1478 1475 1475 1473 1469 1469 1468 1468 1468 1467 1464 1456 1456 1456 1458 1458 1459 1460 1460 1460 1460 1460 1460 1459 1458 1458 1457 1455 1454 1453 1451 1450 1448 1447 1445 1444 1442 1441 1440 1438 1437 1437 1436 1436
1482 1478 1472 1470 1463 1464 1463 1462 1463 1463 1458 1455 1455 1455 1455 1456 1457 1458 1458 1459 1459 1459 1459 1458 1458 1457 1456 1455 1453 1452 1450 1449 1447 1446 1444 1443 1441 1440 1438 1437 1436 1435 1434 1434
1485 1481 1474 1462 1458 1458 1459 1457 1457 1455 1453 1452 1452 1452 1453 1454 1455 1456 1457 1457 1458 1458 1457 1457 1457 1456 1455 1454 1453 1451 1450 1448 1446 1445 1444 1442 1441 1439 1438 1436 1435 1433 1432 1431
1488 1485 1474 1460 1457 1457 1458 1455 1451 1452 1451 1451 1451 1452 1452 1452 1453 1454 1454 1455 1456 1456 1456 1455 1455 1455 1454 1453 1452 1450 1449 1447 1446 1445 1443 1441 1440 1438 1437 1435 1434 1432 1430 1429
1486 1481 1469 1457 1455 1454 1457 1455 1448 1448 1449 1450 1451 1455 1451 1450 1451 1452 1453 1453 1454 1454 1454 1454 1454 1453 1453 1452 1451 1449 1448 1447 1446 1444 1443 1441 1439 1437 1436 1434 1433 1431 1429 1427
1485 1482 1469 1457 1454 1455 1460 1453 1447 1446 1446 1447 1448 1448 1448 1447 1448 1449 1450 1451 1452 1452 1453 1452 1452 1452 1451 1451 1450 1449 1448 1447 1445 1443 1442 1440 1438 1437 1435 1433 1431 1430 1428 1426
1483 1480 1467 1453 1454 1456 1451 1446 1445 1444 1444 1444 1444 1445 1445 1445 1446 1447 1448 1449 1449 1450 1451 1451 1450 1450 1450 1449 1449 1448 1446 1445 1444 1442 1441 1439 1438 1436 1434 1432 1430 1428 1426 1424
1470 1462 1451 1449 1448 1446 1446 1444 1443 1443 1442 1443 1443 1443 1443 1444 1444 1445 1446 1447 1447 1448 1448 1449 1448 1448 1448 1448 1447 1446 1445 1444 1442 1441 1439 1438 1436 1435 1433 1431 1429 1427 1425 1423
1463 1451 1446 1445 1444 1443 1443 1442 1442 1441 1441 1440 1440 1441 1441 1442 1442 1443 1444 1444 1445 1445 1446 1446 1446 1446 1446 1446 1445 1444 1443 1442 1441 1439 1438 1437 1435 1434 1432 1430 1428 1426 1424 1421
1457 1447 1442 1439 1439 1439 1439 1439 1439 1439 1439 1438 1438 1439 1439 1439 1440 1441 1441 1442 1442 1443 1443 1443 1444 1444 1444 1443 1443 1442 1441 1440 1439 1438 1437 1435 1434 1433 1431 1429 1427 1425 1423 1421
1446 1439 1440 1436 1435 1436 1435 1435 1435 1435 1435 1435 1436 1436 1437 1437 1438 1438 1439 1439 1440 1440 1440 1441 1441 1441 1441 1441 1440 1439 1438 1438 1437 1436 1435 1433 1432 1431 1429 1428 1426 1424 1422 1420
1434 1434 1434 1432 1432 1432 1431 1431 1431 1431 1431 1432 1432 1433 1434 1434 1435 1435 1436 1436 1437 1437 1437 1438 1438 1438 1438 1437 1437 1436 1436 1435 1434 1433 1432 1431 1430 1428 1427 1426 1424 1422 1420 1418
1429 1429 1428 1427 1427 1427 1427 1427 1427 1427 1427 1428 1429 1429 1430 1431 1431 1432 1432 1433 1434 1434 1434 1434 1434 1434 1434 1434 1434 1434 1433 1432 1432 1431 1430 1429 1428 1426 1424 1423 1421 1419 1417 1416
1422 1422 1422 1421 1422 1422 1422 1422 1422 1422 1423 1424 1425 1425 1426 1427 1427 1428 1429 1429 1430 1430 1430 1430 1430 1430 1431 1431 1430 1430 1430 1429 1428 1428 1427 1426 1425 1423 1422 1420 1419 1417 1415 1413
1414 1415 1415 1415 1415 1416 1416 1417 1417 1417 1418 1419 1420 1421 1422 1423 1424 1424 1425 1425 1425 1425 1426 1426 1426 1427 1427 1427 1427 1426 1426 1426 1425 1424 1423 1422 1421 1420 1419 1418 1416 1414 1413 1411
1407 1406 1407 1408 1409 1409 1410 1411 1411 1412 1413 1414 1415 1417 1418 1418 1419 1419 1420 1421 1421 1421 1422 1422 1422 1423 1422 1422 1422 1422 1422 1422 1421 1421 1420 1419 1418 1417 1416 1415 1413 1412 1410 1409
1399 1399 1400 1401 1402 1403 1404 1405 1406 1407 1408 1409 1411 1411 1412 1413 1413 1414 1415 1416 1416 1417 1417 1417 1418 1418 1418 1418 1418 1418 1418 1417 1417 1416 1416 1415 1414 1413 1413 1411 1410 1409 1408 1406
1391 1392 1393 1394 1395 1396 1397 1398 1400 1401 1403 1404 1405 1406 1407 1408 1409 1410 1411 1411 1411 1411 1412 1413 1413 1413 1413 1413 1413 1413 1413 1413 1413 1412 1412 1411 1410 1410 1409 1408 1406 1405 1404 1403
1385 1386 1387 1387 1388 1390 1391 1392 1394 1395 1397 1398 1399 1400 1401 1402 1404 1404 1405 1405 1405 1406 1407 1408 1408 1408 1408 1409 1409 1409 1409 1408 1408 1408 1407 1407 1406 1405 1404 1404 1403 1402 1401 1399
1380 1380 1380 1381 1382 1383 1384 1386 1387 1388 1390 1392 1393 1394 1395 1397 1398 1399 1399 1399 1401 1402 1402 1403 1403 1403 1404 1404 1404 1404 1404 1404 1404 1403 1403 1402 1402 1401 1400 1399 1399 1398 1397 1396
1375 1375 1375 1375 1376 1376 1378 1380 1381 1382 1384 1385 1387 1388 1390 1391 1392 1393 1394 1395 1396 1397 1397 1397 1398 1398 1399 1399 1399 1399 1399 1399 1399 1399 1398 1398 1397 1397 1396 1395 1394 1394 1393 1392
1370 1370 1370 1370 1370 1371 1372 1373 1375 1376 1377 1379 1381 1382 1384 1385 1386 1387 1388 1389 1390 1391 1392 1392 1393 1393 1394 1394 1394 1394 1394 1394 1394 1394 1393 1393 1393 1392 1391 1391 1390 1389 1388 1388
1366 1366 1366 1366 1366 1366 1367 1368 1370 1371 1372 1374 1375 1377 1378 1379 1380 1382 1383 1384 1385 1386 1386 1387 1388 1388 1388 1389 1389 1389 1389 1389 1389 1389 1388 1388 1387 1387 1387 1386 1385 1385 1384 1383
1362 1361 1361 1361 1361 1362 1362 1363 1365 1366 1368 1369 1370 1372 1373 1374 1376 1377 1378 1378 1379 1380 1381 1382 1383 1383 1383 1383 1384 1384 1384 1384 1384 1383 1383 1383 1382 1382 1382 1381 1381 1380 1380 1379
1358 1357 1357 1357 1357 1358 1358 1359 1360 1361 1363 1364 1365 1367 1368 1370 1371 1372 1373 1373 1374 1375 1376 1377 1377 1378 1378 1379 1379 1379 1379 1379 1379 1378 1378 1378 1377 1377 1377 1376 1376 1375 1375 1374
1353 1353 1353 1353 1353 1353 1354 1355 1356 1357 1358 1359 1361 1362 1364 1365 1366 1367 1368 1369 1369 1370 1371 1372 1373 1373 1374 1374 1374 1374 1374 1374 1374 1373 1373 1373 1372 1372 1371 1371 1371 1370 1370 1370